Terminal Aerodrome Forecast
Issued by NWS

Home | Current Version | Previous Version | Text Only | Print | Product List | Glossary On
Versions: 1 2 3 4 5 6 7 8 9 10 11 12 13 14
745
FTUS46 KSEW 262320
TAFBFI
TAF
KBFI 262320Z 2700/2724 32005KT P6SM SKC
     FM270400 VRB02KT P6SM SKC
     FM271300 VRB02KT P6SM SCT015
      TEMPO 2713/2717 BKN015
     FM271900 33006KT P6SM SKC=

USA.gov is the U.S. government's official web portal to all federal, state and local government web resources and services.